Flag for United Kingdom Weather past 2 weeks in Stoke-on-Trent, England, United Kingdom

Now
57 °F

Clear.


Feels Like: 57 °F
Forecast: 56 / 79 °F
Wind: 3 mph from East

Location: Manchester Airport

Current Time: Jul 24, 2014 at 4:52:15 AM

Latest Report: Jul 24, 2014 at 4:20 AM


Visibility: 10 mi

Pressure: 30.12 "Hg

Humidity: 88%

Dew point: 54 °F

Location of Stoke-on-TrentLocation

Historic Weather in Stoke-on-Trent — Graph

°F

Stoke-on-Trent temperature yesterday

Maximum temperature yesterday: 79 °F (at 12:50 PM)
Minimum temperature yesterday: 57 °F (at 3:50 AM)
Average temperature yesterday: 70 °F

Past Weeks' High & Low Weather Summary

 TemperatureHumidityPressure
High79 °F (Jul 17, 4:20 PM)100% (Jul 9, 3:50 AM)30.27 "Hg (Jul 9, 3:50 AM)
Low46 °F (Jul 14, 4:20 AM)40% (Jul 15, 6:20 PM)29.71 "Hg (Jul 13, 5:20 AM)
Average64 °F76%30.01 "Hg
* Reported Jul 9 3:50 AM — Jul 24 3:20 AM, Stoke-on-Trent, Weather by CustomWeather, © 2014

Note: Actual official high and low records may vary slightly from our data, if they occured in-between our weather recording intervals... More about our weather records

Advertising

Stoke-on-Trent weather history for previous 24 hours

 ConditionsComfort  
Time TempWeatherWind HumidityBarometerVisibility
3:20 AM
Jul 24
61 °FCool.No wind83%30.12 "HgN/A
2:50 AM59 °FCool.8 mph88%30.12 "HgN/A
2:20 AM61 °FCool.9 mph83%30.15 "HgN/A
1:50 AM63 °FClear.6 mph77%30.15 "Hg10 mi
1:20 AM63 °FClear.8 mph77%30.15 "Hg10 mi
12:50 AM63 °FClear.9 mph77%30.15 "Hg10 mi
12:20 AM64 °FClear.12 mph73%30.15 "Hg10 mi
11:50 PM
Jul 23
66 °FClear.12 mph73%30.15 "Hg10 mi
11:20 PM66 °FClear.12 mph73%30.15 "Hg10 mi
10:50 PM66 °FClear.14 mph68%30.15 "Hg10 mi
10:20 PM68 °FClear.14 mph64%30.15 "Hg10 mi
9:50 PM68 °FSunny.14 mph64%30.15 "Hg10 mi
9:20 PM70 °FSunny.13 mph60%30.15 "Hg10 mi
8:50 PM72 °FSunny.13 mph57%30.12 "Hg10 mi
7:50 PM73 °FSunny.15 mph50%30.12 "Hg10 mi
7:20 PM75 °FPassing clouds.14 mph47%30.12 "HgN/A
6:50 PM77 °FPassing clouds.15 mph44%30.12 "HgN/A
6:20 PM77 °FSunny.13 mph47%30.12 "Hg10 mi
5:50 PM77 °FSunny.16 mph47%30.12 "Hg10 mi
5:20 PM79 °FPassing clouds.17 mph45%30.12 "HgN/A
4:50 PM79 °FSunny.18 mph45%30.12 "Hg10 mi
4:20 PM79 °FPassing clouds.16 mph45%30.15 "HgN/A
3:50 PM79 °FSunny.18 mph42%30.15 "Hg10 mi
3:20 PM79 °FSunny.18 mph45%30.15 "Hg10 mi
2:50 PM79 °FClear.17 mph51%30.15 "Hg6 mi
2:20 PM79 °FPassing clouds.15 mph51%30.15 "HgN/A
1:50 PM77 °FSunny.17 mph51%30.18 "Hg10 mi
12:50 PM79 °FSunny.14 mph48%30.18 "Hg10 mi
12:20 PM77 °FPassing clouds.9 mph51%30.18 "HgN/A
11:50 AM77 °FPassing clouds.13 mph54%30.18 "HgN/A
11:20 AM75 °FPassing clouds.6 mph57%30.21 "HgN/A
10:50 AM73 °FPassing clouds.7 mph61%30.21 "HgN/A
10:20 AM73 °FPassing clouds.7 mph61%30.21 "HgN/A
6:20 AM59 °FClear.8 mph88%30.24 "Hg5 mi
5:50 AM57 °FClear.6 mph94%30.24 "Hg5 mi
5:20 AM57 °FClear.3 mph94%30.24 "Hg5 mi
4:50 AM59 °FClear.3 mph88%30.24 "Hg5 mi
4:20 AM59 °FClear.8 mph88%30.24 "Hg6 mi
Weather by CustomWeather, © 2014

See weather overviewHow to use our weather pages